TimeAEST,TemperatureF,Dew PointF,Humidity,Sea Level PressureIn,VisibilityMPH,Wind Direction,Wind SpeedMPH,Gust SpeedMPH,PrecipitationIn,Events,Conditions,WindDirDegrees,DateUTC
12:00 AM,47,46,92,29.97,,SW,5.8,,,,,220,2013-06-18 14:00:00
12:00 AM,46.4,46.4,100,29.95,6.2,SW,5.8,-,N/A,,Unknown,220,2013-06-18 14:00:00
12:30 AM,48.2,44.6,87,29.95,6.2,SW,6.9,-,N/A,,Unknown,230,2013-06-18 14:30:00
1:00 AM,44.6,41.0,87,29.95,6.2,WSW,3.5,-,N/A,,Unknown,240,2013-06-18 15:00:00
1:30 AM,42.8,41.0,93,29.95,6.2,Calm,Calm,-,N/A,,Unknown,0,2013-06-18 15:30:00
2:00 AM,44.6,42.8,93,29.95,6.2,Calm,Calm,-,N/A,,Unknown,0,2013-06-18 16:00:00
2:30 AM,42.8,41.0,93,29.95,6.2,Calm,Calm,-,N/A,,Unknown,0,2013-06-18 16:30:00
3:00 AM,43,42,95,29.96,,SW,5.8,,,,,230,2013-06-18 17:00:00
3:00 AM,42.8,42.8,100,29.95,6.2,SW,5.8,-,N/A,,Unknown,230,2013-06-18 17:00:00
3:30 AM,50.0,42.8,76,29.95,6.2,SW,5.8,-,N/A,,Unknown,220,2013-06-18 17:30:00
4:00 AM,55.4,41.0,58,29.95,6.2,SSW,10.4,-,N/A,,Unknown,210,2013-06-18 18:00:00
4:30 AM,53.6,41.0,62,29.95,6.2,SSW,8.1,-,N/A,,Unknown,210,2013-06-18 18:30:00
5:00 AM,55.4,39.2,54,29.95,6.2,SSW,11.5,-,N/A,,Unknown,210,2013-06-18 19:00:00
5:30 AM,53.6,39.2,58,29.98,6.2,SSW,10.4,-,N/A,,Unknown,200,2013-06-18 19:30:00
6:00 AM,54,38,42,29.99,,SSW,11.5,,,,,210,2013-06-18 20:00:00
6:00 AM,53.6,37.4,54,29.98,6.2,SSW,11.5,-,N/A,,Unknown,210,2013-06-18 20:00:00
6:30 AM,53.6,37.4,54,29.98,6.2,SSW,10.4,-,N/A,,Unknown,210,2013-06-18 20:30:00
7:00 AM,53.6,37.4,54,30.01,6.2,SW,9.2,-,N/A,,Unknown,220,2013-06-18 21:00:00
7:30 AM,55.4,37.4,51,30.01,6.2,SW,9.2,-,N/A,,Unknown,220,2013-06-18 21:30:00
8:00 AM,57.2,37.4,48,30.01,6.2,SW,10.4,-,N/A,,Unknown,220,2013-06-18 22:00:00
8:30 AM,57.2,35.6,44,30.04,6.2,SW,11.5,-,N/A,,Unknown,220,2013-06-18 22:30:00
9:00 AM,58,37,33,30.06,,SW,12.7,,,,,230,2013-06-18 23:00:00
9:00 AM,59.0,37.4,45,30.04,6.2,SW,12.7,-,N/A,,Unknown,230,2013-06-18 23:00:00
9:30 AM,60.8,39.2,45,30.04,6.2,SSW,10.4,-,N/A,,Unknown,210,2013-06-18 23:30:00
10:00 AM,60.8,39.2,45,30.04,6.2,SSW,10.4,-,N/A,,Unknown,210,2013-06-19 00:00:00
10:30 AM,62.6,41.0,45,30.04,6.2,SSW,13.8,-,N/A,,Unknown,200,2013-06-19 00:30:00
11:00 AM,62.6,41.0,45,30.04,6.2,SSW,12.7,-,N/A,,Unknown,200,2013-06-19 01:00:00
11:30 AM,62.6,41.0,45,30.04,6.2,SSW,15.0,-,N/A,,Unknown,210,2013-06-19 01:30:00
12:00 PM,64,42,34,30.04,,SSW,12.7,,,,,210,2013-06-19 02:00:00
12:00 PM,64.4,42.8,45,30.04,6.2,SSW,12.7,-,N/A,,Unknown,210,2013-06-19 02:00:00
12:30 PM,64.4,42.8,45,30.01,6.2,SSW,12.7,-,N/A,,Unknown,200,2013-06-19 02:30:00
1:00 PM,64.4,41.0,42,30.01,6.2,South,12.7,-,N/A,,Unknown,190,2013-06-19 03:00:00
1:30 PM,64.4,41.0,42,30.01,6.2,South,12.7,-,N/A,,Unknown,190,2013-06-19 03:30:00
2:00 PM,64.4,42.8,45,30.01,6.2,South,11.5,-,N/A,,Unknown,190,2013-06-19 04:00:00
2:30 PM,64.4,42.8,45,30.01,6.2,South,12.7,-,N/A,,Unknown,180,2013-06-19 04:30:00
3:00 PM,63,43,37,30.02,,South,13.8,,,,,180,2013-06-19 05:00:00
3:00 PM,62.6,42.8,48,30.01,6.2,South,13.8,-,N/A,,Unknown,180,2013-06-19 05:00:00
3:30 PM,62.6,44.6,52,30.01,6.2,SSW,11.5,-,N/A,,Unknown,200,2013-06-19 05:30:00
4:00 PM,62.6,44.6,52,30.04,6.2,South,10.4,-,N/A,,Unknown,190,2013-06-19 06:00:00
4:30 PM,60.8,44.6,55,30.04,6.2,SSW,9.2,-,N/A,,Unknown,200,2013-06-19 06:30:00
5:00 PM,60.8,44.6,55,30.04,6.2,SW,9.2,-,N/A,,Scattered Clouds,220,2013-06-19 07:00:00
5:30 PM,59.0,44.6,59,30.04,6.2,SW,6.9,-,N/A,,Scattered Clouds,230,2013-06-19 07:30:00
6:00 PM,59,46,52,30.08,,SSW,5.8,,,,Overcast,210,2013-06-19 08:00:00
6:00 PM,59.0,46.4,63,30.06,6.2,SSW,5.8,-,N/A,,Mostly Cloudy,210,2013-06-19 08:00:00
6:30 PM,57.2,46.4,67,30.06,6.2,South,5.8,-,N/A,,Overcast,180,2013-06-19 08:30:00
7:00 PM,57.2,46.4,67,30.06,6.2,SSW,5.8,-,N/A,,Overcast,200,2013-06-19 09:00:00
7:30 PM,57.2,48.2,72,30.09,6.2,South,8.1,-,N/A,,Overcast,170,2013-06-19 09:30:00
8:00 PM,59.0,46.4,63,30.09,6.2,South,10.4,-,N/A,,Mostly Cloudy,190,2013-06-19 10:00:00
8:30 PM,57.2,44.6,63,30.09,6.2,SSW,8.1,-,N/A,,Scattered Clouds,210,2013-06-19 10:30:00
9:00 PM,59,45,49,30.10,,SSW,10.4,,,,,200,2013-06-19 11:00:00
9:00 PM,59.0,44.6,59,30.09,6.2,SSW,10.4,-,N/A,,Unknown,200,2013-06-19 11:00:00
9:30 PM,59.0,44.6,59,30.09,6.2,SSW,10.4,-,N/A,,Unknown,200,2013-06-19 11:30:00
10:00 PM,59.0,42.8,55,30.09,6.2,SSW,11.5,-,N/A,,Scattered Clouds,200,2013-06-19 12:00:00
10:30 PM,59.0,42.8,55,30.09,6.2,SSW,11.5,-,N/A,,Unknown,200,2013-06-19 12:30:00
11:00 PM,59.0,44.6,59,30.09,6.2,SSW,12.7,-,N/A,,Unknown,210,2013-06-19 13:00:00
11:30 PM,59.0,44.6,59,30.09,6.2,SSW,12.7,-,N/A,,Unknown,210,2013-06-19 13:30:00